Location: Alvis C Story Elementary School
(33.0968°N, 96.6364°W)
Time: 06:35:33
(UTC+00:00)

H-2A R/B (2) - Pass Details

Date: 30 June 2022
Orbit: 426 x 34397 km, 28.9° (Epoch: 11 August)

Event Time Altitude Azimuth Distance (km) Brightness Sun altitude
Exits shadow 07:52:32 11° 181° (S) 18,720 8.5 -30.4°
Maximum altitude 16:24:05 69° 167° (SSE) 6,259 8.0 60.6°
Drops below altitude 10° 16:40:09 10° 87° (E) 4,673 6.6 63.9°
Sets 16:42:04 0° 84° (E) 5,060 6.6 64.2°
